owner,sensor,date,latitude,longitude,air_pressure(mBar),qcFlag 
COMPS,ioos:station:USF.COMPS:C12:1,2019-07-01T01:35:00,27.4980,-83.7220,1017.56,11111222 
COMPS,ioos:station:USF.COMPS:C12:1,2019-07-01T02:35:00,27.4980,-83.7220,1018.0,11111222 
COMPS,ioos:station:USF.COMPS:C12:1,2019-07-01T03:35:00,27.4980,-83.7220,1018.38,11111222 
COMPS,ioos:station:USF.COMPS:C12:1,2019-07-01T04:35:00,27.4980,-83.7220,1018.56,11111222 
COMPS,ioos:station:USF.COMPS:C12:1,2019-07-01T05:35:00,27.4980,-83.7220,1018.22,11111222 
COMPS,ioos:station:USF.COMPS:C12:1,2019-07-01T06:35:00,27.4980,-83.7220,1017.69,11111222 
COMPS,ioos:station:USF.COMPS:C12:1,2019-07-01T07:35:00,27.4980,-83.7220,1017.01,11111222 
COMPS,ioos:station:USF.COMPS:C12:1,2019-07-01T08:35:00,27.4980,-83.7220,1017.06,11111222 
COMPS,ioos:station:USF.COMPS:C12:1,2019-07-01T09:35:00,27.4980,-83.7220,1017.22,11111222 
COMPS,ioos:station:USF.COMPS:C12:1,2019-07-01T10:35:00,27.4980,-83.7220,1017.27,11111222 
COMPS,ioos:station:USF.COMPS:C12:1,2019-07-01T11:35:00,27.4980,-83.7220,1017.79,11111222 
COMPS,ioos:station:USF.COMPS:C12:1,2019-07-01T12:35:00,27.4980,-83.7220,1018.12,11111222 
COMPS,ioos:station:USF.COMPS:C12:1,2019-07-01T13:35:00,27.4980,-83.7220,1018.39,11111222 
COMPS,ioos:station:USF.COMPS:C12:1,2019-07-01T15:35:00,27.4980,-83.7220,1019.03,11111222 
COMPS,ioos:station:USF.COMPS:C12:1,2019-07-01T16:35:00,27.4980,-83.7220,1019.03,11111222 
COMPS,ioos:station:USF.COMPS:C12:1,2019-07-01T17:35:00,27.4980,-83.7220,1019.1,11111222 
COMPS,ioos:station:USF.COMPS:C12:1,2019-07-01T18:35:00,27.4980,-83.7220,1018.43,11111222 
COMPS,ioos:station:USF.COMPS:C12:1,2019-07-01T19:35:00,27.4980,-83.7220,1018.27,11111222 
COMPS,ioos:station:USF.COMPS:C12:1,2019-07-01T20:35:00,27.4980,-83.7220,1017.67,11111222 
COMPS,ioos:station:USF.COMPS:C12:1,2019-07-01T21:35:00,27.4980,-83.7220,1017.07,11111222 
COMPS,ioos:station:USF.COMPS:C12:1,2019-07-01T22:35:00,27.4980,-83.7220,1016.66,11111222 
COMPS,ioos:station:USF.COMPS:C12:1,2019-07-01T23:35:00,27.4980,-83.7220,1017.13,11111222 
COMPS,ioos:station:USF.COMPS:C12:1,2019-07-02T00:35:00,27.4980,-83.7220,1017.56,11111222 
COMPS,ioos:station:USF.COMPS:C12:1,2019-07-02T01:35:00,27.4980,-83.7220,1017.53,11111222 
COMPS,ioos:station:USF.COMPS:C12:1,2019-07-02T02:35:00,27.4980,-83.7220,1017.43,11111222 
COMPS,ioos:station:USF.COMPS:C12:1,2019-07-02T03:35:00,27.4980,-83.7220,1017.56,11111222 
COMPS,ioos:station:USF.COMPS:C12:1,2019-07-02T04:35:00,27.4980,-83.7220,1017.26,11111222 
COMPS,ioos:station:USF.COMPS:C12:1,2019-07-02T05:35:00,27.4980,-83.7220,1016.81,11111222 
COMPS,ioos:station:USF.COMPS:C12:1,2019-07-02T06:35:00,27.4980,-83.7220,1016.39,11111222 
COMPS,ioos:station:USF.COMPS:C12:1,2019-07-02T07:35:00,27.4980,-83.7220,1016.09,11111222 
COMPS,ioos:station:USF.COMPS:C12:1,2019-07-02T08:35:00,27.4980,-83.7220,1016.02,11111222 
COMPS,ioos:station:USF.COMPS:C12:1,2019-07-02T09:35:00,27.4980,-83.7220,1016.36,11111222 
COMPS,ioos:station:USF.COMPS:C12:1,2019-07-02T10:35:00,27.4980,-83.7220,1016.6,11111222 
COMPS,ioos:station:USF.COMPS:C12:1,2019-07-02T11:35:00,27.4980,-83.7220,1017.02,11111222 
COMPS,ioos:station:USF.COMPS:C12:1,2019-07-02T12:35:00,27.4980,-83.7220,1017.37,11111222 
COMPS,ioos:station:USF.COMPS:C12:1,2019-07-02T13:35:00,27.4980,-83.7220,1018.13,11111222 
COMPS,ioos:station:USF.COMPS:C12:1,2019-07-02T14:35:00,27.4980,-83.7220,1018.2,11111222 
COMPS,ioos:station:USF.COMPS:C12:1,2019-07-02T15:35:00,27.4980,-83.7220,1018.28,11111222 
COMPS,ioos:station:USF.COMPS:C12:1,2019-07-02T16:35:00,27.4980,-83.7220,1018.02,11111222 
COMPS,ioos:station:USF.COMPS:C12:1,2019-07-02T17:35:00,27.4980,-83.7220,1017.79,11111222 
COMPS,ioos:station:USF.COMPS:C12:1,2019-07-02T18:35:00,27.4980,-83.7220,1017.29,11111222 
COMPS,ioos:station:USF.COMPS:C12:1,2019-07-02T19:35:00,27.4980,-83.7220,1016.44,11111222 
COMPS,ioos:station:USF.COMPS:C12:1,2019-07-02T20:35:00,27.4980,-83.7220,1015.84,11111222 
COMPS,ioos:station:USF.COMPS:C12:1,2019-07-02T21:35:00,27.4980,-83.7220,1015.34,11111222 
COMPS,ioos:station:USF.COMPS:C12:1,2019-07-02T22:35:00,27.4980,-83.7220,1014.88,11111222 
COMPS,ioos:station:USF.COMPS:C12:1,2019-07-02T23:35:00,27.4980,-83.7220,1014.98,11111222 
COMPS,ioos:station:USF.COMPS:C12:1,2019-07-03T00:35:00,27.4980,-83.7220,1015.19,11111222 
COMPS,ioos:station:USF.COMPS:C12:1,2019-07-03T01:35:00,27.4980,-83.7220,1015.09,11111222 
COMPS,ioos:station:USF.COMPS:C12:1,2019-07-03T02:35:00,27.4980,-83.7220,1015.7,11111222 
COMPS,ioos:station:USF.COMPS:C12:1,2019-07-03T03:35:00,27.4980,-83.7220,1015.97,11111222 
COMPS,ioos:station:USF.COMPS:C12:1,2019-07-03T04:35:00,27.4980,-83.7220,1015.77,11111222 
COMPS,ioos:station:USF.COMPS:C12:1,2019-07-03T05:35:00,27.4980,-83.7220,1015.37,11111222 
COMPS,ioos:station:USF.COMPS:C12:1,2019-07-03T06:35:00,27.4980,-83.7220,1014.97,11111222 
COMPS,ioos:station:USF.COMPS:C12:1,2019-07-03T07:35:00,27.4980,-83.7220,1014.53,11111222 
COMPS,ioos:station:USF.COMPS:C12:1,2019-07-03T08:35:00,27.4980,-83.7220,1014.43,11111222 
COMPS,ioos:station:USF.COMPS:C12:1,2019-07-03T09:35:00,27.4980,-83.7220,1014.62,11111222 
COMPS,ioos:station:USF.COMPS:C12:1,2019-07-03T10:35:00,27.4980,-83.7220,1014.93,11111222 
COMPS,ioos:station:USF.COMPS:C12:1,2019-07-03T11:35:00,27.4980,-83.7220,1015.4,11111222 
COMPS,ioos:station:USF.COMPS:C12:1,2019-07-03T12:35:00,27.4980,-83.7220,1015.9,11111222 
COMPS,ioos:station:USF.COMPS:C12:1,2019-07-03T13:35:00,27.4980,-83.7220,1016.3,11111222 
COMPS,ioos:station:USF.COMPS:C12:1,2019-07-03T14:35:00,27.4980,-83.7220,1016.7,11111222 
COMPS,ioos:station:USF.COMPS:C12:1,2019-07-03T15:35:00,27.4980,-83.7220,1016.86,11111222 
COMPS,ioos:station:USF.COMPS:C12:1,2019-07-03T16:35:00,27.4980,-83.7220,1016.91,11111222 
COMPS,ioos:station:USF.COMPS:C12:1,2019-07-03T17:35:00,27.4980,-83.7220,1016.42,11111222 
COMPS,ioos:station:USF.COMPS:C12:1,2019-07-03T18:35:00,27.4980,-83.7220,1016.03,11111222 
COMPS,ioos:station:USF.COMPS:C12:1,2019-07-03T19:35:00,27.4980,-83.7220,1015.69,11111222 
COMPS,ioos:station:USF.COMPS:C12:1,2019-07-03T20:35:00,27.4980,-83.7220,1014.57,11111222 
COMPS,ioos:station:USF.COMPS:C12:1,2019-07-03T21:35:00,27.4980,-83.7220,1013.84,11111222 
COMPS,ioos:station:USF.COMPS:C12:1,2019-07-03T22:35:00,27.4980,-83.7220,1013.86,11111222 
COMPS,ioos:station:USF.COMPS:C12:1,2019-07-03T23:35:00,27.4980,-83.7220,1014.55,11111222 
COMPS,ioos:station:USF.COMPS:C12:1,2019-07-04T00:35:00,27.4980,-83.7220,1014.55,11111222 
COMPS,ioos:station:USF.COMPS:C12:1,2019-07-04T01:35:00,27.4980,-83.7220,1014.8,11111222 
COMPS,ioos:station:USF.COMPS:C12:1,2019-07-04T02:35:00,27.4980,-83.7220,1014.93,11111222 
COMPS,ioos:station:USF.COMPS:C12:1,2019-07-04T03:35:00,27.4980,-83.7220,1015.17,11111222 
COMPS,ioos:station:USF.COMPS:C12:1,2019-07-04T04:35:00,27.4980,-83.7220,1015.2,11111222 
COMPS,ioos:station:USF.COMPS:C12:1,2019-07-04T05:35:00,27.4980,-83.7220,1015.38,11111222 
COMPS,ioos:station:USF.COMPS:C12:1,2019-07-04T06:35:00,27.4980,-83.7220,1015.38,11111222 
COMPS,ioos:station:USF.COMPS:C12:1,2019-07-04T07:35:00,27.4980,-83.7220,1014.8,11111222 
COMPS,ioos:station:USF.COMPS:C12:1,2019-07-04T08:35:00,27.4980,-83.7220,1014.64,11111222 
COMPS,ioos:station:USF.COMPS:C12:1,2019-07-04T09:35:00,27.4980,-83.7220,1014.26,11111222 
COMPS,ioos:station:USF.COMPS:C12:1,2019-07-04T10:35:00,27.4980,-83.7220,1014.66,11111222 
COMPS,ioos:station:USF.COMPS:C12:1,2019-07-04T11:35:00,27.4980,-83.7220,1015.48,11111222 
COMPS,ioos:station:USF.COMPS:C12:1,2019-07-04T12:35:00,27.4980,-83.7220,1015.94,11111222 
COMPS,ioos:station:USF.COMPS:C12:1,2019-07-04T13:35:00,27.4980,-83.7220,1016.42,11111222 
COMPS,ioos:station:USF.COMPS:C12:1,2019-07-04T14:35:00,27.4980,-83.7220,1016.61,11111222 
COMPS,ioos:station:USF.COMPS:C12:1,2019-07-04T15:35:00,27.4980,-83.7220,1016.72,11111222 
COMPS,ioos:station:USF.COMPS:C12:1,2019-07-04T16:35:00,27.4980,-83.7220,1016.88,11111222 
COMPS,ioos:station:USF.COMPS:C12:1,2019-07-04T17:35:00,27.4980,-83.7220,1016.93,11111222 
COMPS,ioos:station:USF.COMPS:C12:1,2019-07-04T18:35:00,27.4980,-83.7220,1016.47,11111222 
COMPS,ioos:station:USF.COMPS:C12:1,2019-07-04T19:35:00,27.4980,-83.7220,1016.0,11111222 
COMPS,ioos:station:USF.COMPS:C12:1,2019-07-04T20:35:00,27.4980,-83.7220,1015.39,11111222 
COMPS,ioos:station:USF.COMPS:C12:1,2019-07-04T21:35:00,27.4980,-83.7220,1015.2,11111222 
COMPS,ioos:station:USF.COMPS:C12:1,2019-07-04T22:35:00,27.4980,-83.7220,1015.18,11111222 
COMPS,ioos:station:USF.COMPS:C12:1,2019-07-04T23:35:00,27.4980,-83.7220,1015.45,11111222 
COMPS,ioos:station:USF.COMPS:C12:1,2019-07-05T00:35:00,27.4980,-83.7220,1015.53,11111222 
COMPS,ioos:station:USF.COMPS:C12:1,2019-07-05T01:35:00,27.4980,-83.7220,1016.37,11111222 
COMPS,ioos:station:USF.COMPS:C12:1,2019-07-05T02:35:00,27.4980,-83.7220,1016.82,11111222 
COMPS,ioos:station:USF.COMPS:C12:1,2019-07-05T03:35:00,27.4980,-83.7220,1017.16,11111222 
COMPS,ioos:station:USF.COMPS:C12:1,2019-07-05T04:35:00,27.4980,-83.7220,1017.45,11111222 
COMPS,ioos:station:USF.COMPS:C12:1,2019-07-05T05:35:00,27.4980,-83.7220,1017.12,11111222 
COMPS,ioos:station:USF.COMPS:C12:1,2019-07-05T06:35:00,27.4980,-83.7220,1016.73,11111222 
COMPS,ioos:station:USF.COMPS:C12:1,2019-07-05T07:35:00,27.4980,-83.7220,1016.54,11111222 
COMPS,ioos:station:USF.COMPS:C12:1,2019-07-05T08:35:00,27.4980,-83.7220,1016.42,11111222 
COMPS,ioos:station:USF.COMPS:C12:1,2019-07-05T09:35:00,27.4980,-83.7220,1016.14,11111222 
COMPS,ioos:station:USF.COMPS:C12:1,2019-07-05T10:35:00,27.4980,-83.7220,1016.51,11111222 
COMPS,ioos:station:USF.COMPS:C12:1,2019-07-05T11:35:00,27.4980,-83.7220,1017.1,11111222 
COMPS,ioos:station:USF.COMPS:C12:1,2019-07-05T12:35:00,27.4980,-83.7220,1017.98,11111222 
COMPS,ioos:station:USF.COMPS:C12:1,2019-07-05T13:35:00,27.4980,-83.7220,1018.51,11111222 
COMPS,ioos:station:USF.COMPS:C12:1,2019-07-05T14:35:00,27.4980,-83.7220,1018.88,11111222 
COMPS,ioos:station:USF.COMPS:C12:1,2019-07-05T15:35:00,27.4980,-83.7220,1019.09,11111222 
COMPS,ioos:station:USF.COMPS:C12:1,2019-07-05T16:35:00,27.4980,-83.7220,1019.1,11111222 
COMPS,ioos:station:USF.COMPS:C12:1,2019-07-05T17:35:00,27.4980,-83.7220,1018.84,11111222 
COMPS,ioos:station:USF.COMPS:C12:1,2019-07-05T18:35:00,27.4980,-83.7220,1018.5,11111222 
COMPS,ioos:station:USF.COMPS:C12:1,2019-07-05T19:35:00,27.4980,-83.7220,1018.05,11111222 
COMPS,ioos:station:USF.COMPS:C12:1,2019-07-05T20:35:00,27.4980,-83.7220,1017.75,11111222 
COMPS,ioos:station:USF.COMPS:C12:1,2019-07-05T21:35:00,27.4980,-83.7220,1017.59,11111222 
COMPS,ioos:station:USF.COMPS:C12:1,2019-07-05T22:35:00,27.4980,-83.7220,1017.67,11111222 
COMPS,ioos:station:USF.COMPS:C12:1,2019-07-05T23:35:00,27.4980,-83.7220,1017.78,11111222 
COMPS,ioos:station:USF.COMPS:C12:1,2019-07-06T00:35:00,27.4980,-83.7220,1018.4,11111222 
COMPS,ioos:station:USF.COMPS:C12:1,2019-07-06T02:35:00,27.4980,-83.7220,1018.45,11111222 
COMPS,ioos:station:USF.COMPS:C12:1,2019-07-06T03:35:00,27.4980,-83.7220,1018.61,11111222 
COMPS,ioos:station:USF.COMPS:C12:1,2019-07-06T04:35:00,27.4980,-83.7220,1018.71,11111222 
COMPS,ioos:station:USF.COMPS:C12:1,2019-07-06T05:35:00,27.4980,-83.7220,1018.43,11111222 
COMPS,ioos:station:USF.COMPS:C12:1,2019-07-06T06:35:00,27.4980,-83.7220,1017.93,11111222 
COMPS,ioos:station:USF.COMPS:C12:1,2019-07-06T07:35:00,27.4980,-83.7220,1017.33,11111222 
COMPS,ioos:station:USF.COMPS:C12:1,2019-07-06T08:35:00,27.4980,-83.7220,1017.02,11111222 
COMPS,ioos:station:USF.COMPS:C12:1,2019-07-06T09:35:00,27.4980,-83.7220,1017.32,11111222 
COMPS,ioos:station:USF.COMPS:C12:1,2019-07-06T10:35:00,27.4980,-83.7220,1017.81,11111222 
COMPS,ioos:station:USF.COMPS:C12:1,2019-07-06T11:35:00,27.4980,-83.7220,1018.19,11111222 
COMPS,ioos:station:USF.COMPS:C12:1,2019-07-06T12:35:00,27.4980,-83.7220,1018.74,11111222 
COMPS,ioos:station:USF.COMPS:C12:1,2019-07-06T13:35:00,27.4980,-83.7220,1018.84,11111222 
COMPS,ioos:station:USF.COMPS:C12:1,2019-07-06T14:35:00,27.4980,-83.7220,1019.03,11111222 
COMPS,ioos:station:USF.COMPS:C12:1,2019-07-06T15:35:00,27.4980,-83.7220,1019.3,11111222 
COMPS,ioos:station:USF.COMPS:C12:1,2019-07-06T16:35:00,27.4980,-83.7220,1019.45,11111222 
COMPS,ioos:station:USF.COMPS:C12:1,2019-07-06T17:35:00,27.4980,-83.7220,1019.73,11111222 
COMPS,ioos:station:USF.COMPS:C12:1,2019-07-06T18:35:00,27.4980,-83.7220,1018.82,11111222 
COMPS,ioos:station:USF.COMPS:C12:1,2019-07-06T19:35:00,27.4980,-83.7220,1017.92,11111222 
COMPS,ioos:station:USF.COMPS:C12:1,2019-07-06T20:35:00,27.4980,-83.7220,1017.53,11111222 
COMPS,ioos:station:USF.COMPS:C12:1,2019-07-06T21:35:00,27.4980,-83.7220,1017.76,11111222 
COMPS,ioos:station:USF.COMPS:C12:1,2019-07-06T22:35:00,27.4980,-83.7220,1017.6,11111222 
COMPS,ioos:station:USF.COMPS:C12:1,2019-07-06T23:35:00,27.4980,-83.7220,1017.92,11111222 
COMPS,ioos:station:USF.COMPS:C12:1,2019-07-07T00:35:00,27.4980,-83.7220,1017.69,11111222 
COMPS,ioos:station:USF.COMPS:C12:1,2019-07-07T01:35:00,27.4980,-83.7220,1017.4,11111222 
COMPS,ioos:station:USF.COMPS:C12:1,2019-07-07T02:35:00,27.4980,-83.7220,1017.79,11111222 
COMPS,ioos:station:USF.COMPS:C12:1,2019-07-07T03:35:00,27.4980,-83.7220,1017.79,11111222 
COMPS,ioos:station:USF.COMPS:C12:1,2019-07-07T04:35:00,27.4980,-83.7220,1016.68,11111222 
COMPS,ioos:station:USF.COMPS:C12:1,2019-07-07T05:35:00,27.4980,-83.7220,1016.84,11111222 
COMPS,ioos:station:USF.COMPS:C12:1,2019-07-07T06:35:00,27.4980,-83.7220,1016.75,11111222 
COMPS,ioos:station:USF.COMPS:C12:1,2019-07-07T07:35:00,27.4980,-83.7220,1016.34,11111222 
COMPS,ioos:station:USF.COMPS:C12:1,2019-07-07T08:35:00,27.4980,-83.7220,1016.03,11111222 
COMPS,ioos:station:USF.COMPS:C12:1,2019-07-07T09:35:00,27.4980,-83.7220,1016.22,11111222 
COMPS,ioos:station:USF.COMPS:C12:1,2019-07-07T10:35:00,27.4980,-83.7220,1016.58,11111222 
COMPS,ioos:station:USF.COMPS:C12:1,2019-07-07T11:35:00,27.4980,-83.7220,1016.83,11111222 
COMPS,ioos:station:USF.COMPS:C12:1,2019-07-07T12:35:00,27.4980,-83.7220,1016.77,11111222 
COMPS,ioos:station:USF.COMPS:C12:1,2019-07-07T13:35:00,27.4980,-83.7220,1017.15,11111222 
COMPS,ioos:station:USF.COMPS:C12:1,2019-07-07T14:35:00,27.4980,-83.7220,1016.87,11111222 
COMPS,ioos:station:USF.COMPS:C12:1,2019-07-07T15:35:00,27.4980,-83.7220,1017.39,11111222 
COMPS,ioos:station:USF.COMPS:C12:1,2019-07-07T16:35:00,27.4980,-83.7220,1017.36,11111222 
COMPS,ioos:station:USF.COMPS:C12:1,2019-07-07T17:35:00,27.4980,-83.7220,1017.21,11111222 
COMPS,ioos:station:USF.COMPS:C12:1,2019-07-07T18:35:00,27.4980,-83.7220,1016.49,11111222 
COMPS,ioos:station:USF.COMPS:C12:1,2019-07-07T19:35:00,27.4980,-83.7220,1016.22,11111222 
COMPS,ioos:station:USF.COMPS:C12:1,2019-07-07T20:35:00,27.4980,-83.7220,1015.46,11111222 
COMPS,ioos:station:USF.COMPS:C12:1,2019-07-07T21:35:00,27.4980,-83.7220,1014.48,11111222 
COMPS,ioos:station:USF.COMPS:C12:1,2019-07-07T22:35:00,27.4980,-83.7220,1014.51,11111222 
COMPS,ioos:station:USF.COMPS:C12:1,2019-07-07T23:35:00,27.4980,-83.7220,1014.79,11111222 
COMPS,ioos:station:USF.COMPS:C12:1,2019-07-08T00:35:00,27.4980,-83.7220,1014.64,11111222 
COMPS,ioos:station:USF.COMPS:C12:1,2019-07-08T01:35:00,27.4980,-83.7220,1014.69,11111222 
COMPS,ioos:station:USF.COMPS:C12:1,2019-07-08T02:35:00,27.4980,-83.7220,1014.73,11111222 
COMPS,ioos:station:USF.COMPS:C12:1,2019-07-08T03:35:00,27.4980,-83.7220,1015.16,11111222 
COMPS,ioos:station:USF.COMPS:C12:1,2019-07-08T04:35:00,27.4980,-83.7220,1015.14,11111222 
COMPS,ioos:station:USF.COMPS:C12:1,2019-07-08T05:35:00,27.4980,-83.7220,1014.61,11111222 
COMPS,ioos:station:USF.COMPS:C12:1,2019-07-08T06:35:00,27.4980,-83.7220,1013.84,11111222 
COMPS,ioos:station:USF.COMPS:C12:1,2019-07-08T07:35:00,27.4980,-83.7220,1013.39,11111222 
COMPS,ioos:station:USF.COMPS:C12:1,2019-07-08T08:35:00,27.4980,-83.7220,1013.17,11111222 
COMPS,ioos:station:USF.COMPS:C12:1,2019-07-08T09:35:00,27.4980,-83.7220,1013.21,11111222 
COMPS,ioos:station:USF.COMPS:C12:1,2019-07-08T10:35:00,27.4980,-83.7220,1013.32,11111222 
COMPS,ioos:station:USF.COMPS:C12:1,2019-07-08T11:35:00,27.4980,-83.7220,1013.7,11111222 
COMPS,ioos:station:USF.COMPS:C12:1,2019-07-08T12:35:00,27.4980,-83.7220,1014.21,11111222 
COMPS,ioos:station:USF.COMPS:C12:1,2019-07-08T13:35:00,27.4980,-83.7220,1014.73,11111222 
COMPS,ioos:station:USF.COMPS:C12:1,2019-07-08T14:35:00,27.4980,-83.7220,1015.25,11111222 
COMPS,ioos:station:USF.COMPS:C12:1,2019-07-08T15:35:00,27.4980,-83.7220,1015.87,11111222 
COMPS,ioos:station:USF.COMPS:C12:1,2019-07-08T16:35:00,27.4980,-83.7220,1015.24,11111222 
COMPS,ioos:station:USF.COMPS:C12:1,2019-07-08T17:35:00,27.4980,-83.7220,1014.45,11111222 
COMPS,ioos:station:USF.COMPS:C12:1,2019-07-08T18:35:00,27.4980,-83.7220,1013.89,11111222 
COMPS,ioos:station:USF.COMPS:C12:1,2019-07-08T19:35:00,27.4980,-83.7220,1013.6,11111222 
COMPS,ioos:station:USF.COMPS:C12:1,2019-07-08T20:35:00,27.4980,-83.7220,1013.28,11111222 
COMPS,ioos:station:USF.COMPS:C12:1,2019-07-08T21:35:00,27.4980,-83.7220,1012.92,11111222 
COMPS,ioos:station:USF.COMPS:C12:1,2019-07-08T22:35:00,27.4980,-83.7220,1012.62,11111222 
COMPS,ioos:station:USF.COMPS:C12:1,2019-07-08T23:35:00,27.4980,-83.7220,1012.7,11111222 
COMPS,ioos:station:USF.COMPS:C12:1,2019-07-09T00:35:00,27.4980,-83.7220,1013.07,11111222 
COMPS,ioos:station:USF.COMPS:C12:1,2019-07-09T01:35:00,27.4980,-83.7220,1013.58,11111222 
COMPS,ioos:station:USF.COMPS:C12:1,2019-07-09T02:35:00,27.4980,-83.7220,1013.69,11111222 
COMPS,ioos:station:USF.COMPS:C12:1,2019-07-09T03:35:00,27.4980,-83.7220,1013.81,11111222 
COMPS,ioos:station:USF.COMPS:C12:1,2019-07-09T04:35:00,27.4980,-83.7220,1013.81,11111222 
COMPS,ioos:station:USF.COMPS:C12:1,2019-07-09T05:35:00,27.4980,-83.7220,1013.88,11111222 
COMPS,ioos:station:USF.COMPS:C12:1,2019-07-09T06:35:00,27.4980,-83.7220,1013.38,11111222 
COMPS,ioos:station:USF.COMPS:C12:1,2019-07-09T07:35:00,27.4980,-83.7220,1012.89,11111222 
COMPS,ioos:station:USF.COMPS:C12:1,2019-07-09T08:35:00,27.4980,-83.7220,1013.02,11111222 
COMPS,ioos:station:USF.COMPS:C12:1,2019-07-09T09:35:00,27.4980,-83.7220,1012.99,11111222 
COMPS,ioos:station:USF.COMPS:C12:1,2019-07-09T10:35:00,27.4980,-83.7220,1013.31,11111222 
COMPS,ioos:station:USF.COMPS:C12:1,2019-07-09T11:35:00,27.4980,-83.7220,1013.55,11111222 
COMPS,ioos:station:USF.COMPS:C12:1,2019-07-09T12:35:00,27.4980,-83.7220,1014.15,11111222 
COMPS,ioos:station:USF.COMPS:C12:1,2019-07-09T13:35:00,27.4980,-83.7220,1014.37,11111222 
COMPS,ioos:station:USF.COMPS:C12:1,2019-07-09T14:35:00,27.4980,-83.7220,1014.8,11111222 
COMPS,ioos:station:USF.COMPS:C12:1,2019-07-09T15:35:00,27.4980,-83.7220,1014.76,11111222 
COMPS,ioos:station:USF.COMPS:C12:1,2019-07-09T16:35:00,27.4980,-83.7220,1014.53,11111222 
COMPS,ioos:station:USF.COMPS:C12:1,2019-07-09T17:35:00,27.4980,-83.7220,1015.16,11111222 
COMPS,ioos:station:USF.COMPS:C12:1,2019-07-09T18:35:00,27.4980,-83.7220,1014.89,11111222 
COMPS,ioos:station:USF.COMPS:C12:1,2019-07-09T19:35:00,27.4980,-83.7220,1014.96,11111222 
COMPS,ioos:station:USF.COMPS:C12:1,2019-07-09T20:35:00,27.4980,-83.7220,1014.48,11111222 
COMPS,ioos:station:USF.COMPS:C12:1,2019-07-09T21:35:00,27.4980,-83.7220,1014.3,11111222 
COMPS,ioos:station:USF.COMPS:C12:1,2019-07-09T22:35:00,27.4980,-83.7220,1013.56,11111222 
COMPS,ioos:station:USF.COMPS:C12:1,2019-07-09T23:35:00,27.4980,-83.7220,1013.42,11111222 
COMPS,ioos:station:USF.COMPS:C12:1,2019-07-10T00:35:00,27.4980,-83.7220,1013.78,11111222 
COMPS,ioos:station:USF.COMPS:C12:1,2019-07-10T01:35:00,27.4980,-83.7220,1014.75,11111222 
COMPS,ioos:station:USF.COMPS:C12:1,2019-07-10T02:35:00,27.4980,-83.7220,1014.69,11111222 
COMPS,ioos:station:USF.COMPS:C12:1,2019-07-10T03:35:00,27.4980,-83.7220,1014.65,11111222 
COMPS,ioos:station:USF.COMPS:C12:1,2019-07-10T04:35:00,27.4980,-83.7220,1014.76,11111222 
COMPS,ioos:station:USF.COMPS:C12:1,2019-07-10T05:35:00,27.4980,-83.7220,1014.02,11111222 
COMPS,ioos:station:USF.COMPS:C12:1,2019-07-10T06:35:00,27.4980,-83.7220,1013.65,11111222 
COMPS,ioos:station:USF.COMPS:C12:1,2019-07-10T07:35:00,27.4980,-83.7220,1013.04,11111222 
COMPS,ioos:station:USF.COMPS:C12:1,2019-07-10T08:35:00,27.4980,-83.7220,1012.94,11111222 
COMPS,ioos:station:USF.COMPS:C12:1,2019-07-10T09:35:00,27.4980,-83.7220,1013.28,11111222 
COMPS,ioos:station:USF.COMPS:C12:1,2019-07-10T10:35:00,27.4980,-83.7220,1013.92,11111222 
COMPS,ioos:station:USF.COMPS:C12:1,2019-07-10T11:35:00,27.4980,-83.7220,1014.12,11111222 
COMPS,ioos:station:USF.COMPS:C12:1,2019-07-10T12:35:00,27.4980,-83.7220,1014.82,11111222 
COMPS,ioos:station:USF.COMPS:C12:1,2019-07-10T13:35:00,27.4980,-83.7220,1015.21,11111222 
COMPS,ioos:station:USF.COMPS:C12:1,2019-07-10T14:35:00,27.4980,-83.7220,1016.19,11111222 
COMPS,ioos:station:USF.COMPS:C12:1,2019-07-10T15:35:00,27.4980,-83.7220,1015.85,11111222 
COMPS,ioos:station:USF.COMPS:C12:1,2019-07-10T16:35:00,27.4980,-83.7220,1015.54,11111222 
COMPS,ioos:station:USF.COMPS:C12:1,2019-07-10T17:35:00,27.4980,-83.7220,1015.41,11111222 
COMPS,ioos:station:USF.COMPS:C12:1,2019-07-10T18:35:00,27.4980,-83.7220,1015.12,11111222 
COMPS,ioos:station:USF.COMPS:C12:1,2019-07-10T19:35:00,27.4980,-83.7220,1014.8,11111222 
COMPS,ioos:station:USF.COMPS:C12:1,2019-07-10T20:35:00,27.4980,-83.7220,1014.63,11111222 
COMPS,ioos:station:USF.COMPS:C12:1,2019-07-10T21:35:00,27.4980,-83.7220,1014.72,11111222 
COMPS,ioos:station:USF.COMPS:C12:1,2019-07-10T22:35:00,27.4980,-83.7220,1014.27,11111222 
COMPS,ioos:station:USF.COMPS:C12:1,2019-07-10T23:35:00,27.4980,-83.7220,1014.24,11111222 
COMPS,ioos:station:USF.COMPS:C12:1,2019-07-11T00:35:00,27.4980,-83.7220,1014.49,11111222 
COMPS,ioos:station:USF.COMPS:C12:1,2019-07-11T01:35:00,27.4980,-83.7220,1014.75,11111222 
COMPS,ioos:station:USF.COMPS:C12:1,2019-07-11T02:35:00,27.4980,-83.7220,1015.13,11111222 
COMPS,ioos:station:USF.COMPS:C12:1,2019-07-11T03:35:00,27.4980,-83.7220,1015.3,11111222 
COMPS,ioos:station:USF.COMPS:C12:1,2019-07-11T04:35:00,27.4980,-83.7220,1015.21,11111222 
COMPS,ioos:station:USF.COMPS:C12:1,2019-07-11T05:35:00,27.4980,-83.7220,1014.23,11111222 
COMPS,ioos:station:USF.COMPS:C12:1,2019-07-11T06:35:00,27.4980,-83.7220,1013.66,11111222 
COMPS,ioos:station:USF.COMPS:C12:1,2019-07-11T07:35:00,27.4980,-83.7220,1013.14,11111222 
COMPS,ioos:station:USF.COMPS:C12:1,2019-07-11T08:35:00,27.4980,-83.7220,1012.73,11111222 
COMPS,ioos:station:USF.COMPS:C12:1,2019-07-11T09:35:00,27.4980,-83.7220,1012.98,11111222 
COMPS,ioos:station:USF.COMPS:C12:1,2019-07-11T10:35:00,27.4980,-83.7220,1013.61,11111222 
COMPS,ioos:station:USF.COMPS:C12:1,2019-07-11T11:35:00,27.4980,-83.7220,1013.85,11111222 
COMPS,ioos:station:USF.COMPS:C12:1,2019-07-11T12:35:00,27.4980,-83.7220,1013.95,11111222 
COMPS,ioos:station:USF.COMPS:C12:1,2019-07-11T13:35:00,27.4980,-83.7220,1014.47,11111222 
COMPS,ioos:station:USF.COMPS:C12:1,2019-07-11T14:35:00,27.4980,-83.7220,1014.94,11111222 
COMPS,ioos:station:USF.COMPS:C12:1,2019-07-11T15:35:00,27.4980,-83.7220,1015.19,11111222 
COMPS,ioos:station:USF.COMPS:C12:1,2019-07-11T16:35:00,27.4980,-83.7220,1014.58,11111222 
COMPS,ioos:station:USF.COMPS:C12:1,2019-07-11T17:35:00,27.4980,-83.7220,1014.87,11111222 
COMPS,ioos:station:USF.COMPS:C12:1,2019-07-11T18:35:00,27.4980,-83.7220,1013.8,11111222 
COMPS,ioos:station:USF.COMPS:C12:1,2019-07-11T19:35:00,27.4980,-83.7220,1013.93,11111222 
COMPS,ioos:station:USF.COMPS:C12:1,2019-07-11T20:35:00,27.4980,-83.7220,1013.57,11111222 
COMPS,ioos:station:USF.COMPS:C12:1,2019-07-11T21:35:00,27.4980,-83.7220,1013.05,11111222 
COMPS,ioos:station:USF.COMPS:C12:1,2019-07-11T22:35:00,27.4980,-83.7220,1013.16,11111222 
COMPS,ioos:station:USF.COMPS:C12:1,2019-07-11T23:35:00,27.4980,-83.7220,1013.44,11111222 
COMPS,ioos:station:USF.COMPS:C12:1,2019-07-12T00:35:00,27.4980,-83.7220,1013.67,11111222 
COMPS,ioos:station:USF.COMPS:C12:1,2019-07-12T01:35:00,27.4980,-83.7220,1013.77,11111222 
COMPS,ioos:station:USF.COMPS:C12:1,2019-07-12T02:35:00,27.4980,-83.7220,1013.98,11111222 
COMPS,ioos:station:USF.COMPS:C12:1,2019-07-12T03:35:00,27.4980,-83.7220,1014.34,11111222 
COMPS,ioos:station:USF.COMPS:C12:1,2019-07-12T04:35:00,27.4980,-83.7220,1014.68,11111222 